Showing default

WILDFIRE 9, 57765

Orbit data source: Space-Track

WILDFIRE 9, 57765 is a payload satellite owned by SDA (US) in LEO that was launched on Sat, 02 Sep 2023 UTC via an FALCON 9 launch vehicle from the Air Force Western Test Range (AFWTR). Payload-class satellites include a variety of spacecraft equipped with specific instruments for various scientific and technological missions. These include communications satellites like Starlink; space stations such as the ISS; scientific satellites like the Hubble; Earth observation satellites from companies like Planet Labs, Umbra, and HawkEye 360; GPS; miniature CubeSats for education and research; and military/defense satellites.

Loading next visibility...
Identifier
57765, 2023-133J
Orbit
LEO
Country
Flag of USUS
Related business
Manufacturer
TYVAK/LMSSD
Mission
Operational Defense Communications
Bus & Motor
MAVERICKS, Unknown motor
Mass
~300 kg wet, ~300 kg dry
Launch date (UTC)
2023-09-02 (3 years ago)
Launch vehicle
FALCON 9
Launch site
Air Force Western Test Range (AFWTR)
Object type
Payload
Rocket body
Debris
Shape & HBR
Box + 2 Pan, 1.3 m
Radar Cross Section
0.713 m², Large (>1 m²)

Expand to show TLE details & history
Last TLE update: 2 days ago

TLE from 2 days ago
0 WILDFIRE 9
1 57765U 23133J   26170.94876191 -.00000028  00000-0 -34522-4 0  9995
2 57765  81.0027   5.3094 0006129  14.7286 345.4048 13.85385892141407
Epoch: 2026-06-19T22:46Z
TLE epoch observation values (Epoch: 2026-06-19T22:46:13.029Z)
Latitude
0.00003°
Longitude
115.58471°
Altitude
943.359 km
Speed
7.382 km/s
True Right ascension
00h 21m 14s
True Declination
0° 00' 00"
Sunlit
Object was in daylight at epoch
Visualization orbit readout
Latitude
Unknown
Longitude
Unknown
Altitude
Unknown
Speed
Unknown
Apparent Right ascension
Unknown
Apparent Declination
Unknown
Sunlit
N/A
Visualization observer readout
Local Sidereal Time
21:34:21
Azimuth
Unknown
Elevation
Unknown
Doppler factor
Unknown
Orbital elements
Apogee altitude
946.551 km
Perigee altitude
937.578 km
Semi-major axis
7,320.201 km
Eccentricity
0.00061
Inclination
81.0027°
RAAN
5.3094°
Arg. of periapsis
14.7286°
True anomaly
345.38709°
Mean anomaly
345.4048°
Eccentric anomaly
345.39595°
Mean motion
3.46544 °/min
Orbital period
103.88 mins
BSTAR
-0.000034522
Loading maneuver chart data...
Computing Atmospheric mass density...
Loading historical data...
Loading historical data...
Loading historical data...
Loading historical data...
Loading historical data...
Loading historical data...
Loading historical data...

Documentation

Showing up to 5 results
|